Wind_Speed
16 9 11 19 25 24 23 22 14 12 15 15 18 21 22 20 20 20 19 17 16 14 16 15 14 12 10 7 5 2 1 2 3 4 5 7 8 10 11 12 13 14 15 16
10 9 13 13 22 24 26 22 22 14 9 12 17 18 20 21 22 21 20 19 17 16 18 17 16 14 11 9 7 4 3 2 2 3 5 7 8 10 12 13 13 15 16 16
10 13 12 13 17 23 21 24 23 18 13 9 17 20 22 22 23 21 21 20 19 18 19 18 17 15 13 11 8 6 4 3 3 3 5 7 9 11 13 13 14 16 16 17
6 15 18 9 15 18 21 21 23 20 13 16 17 19 20 21 22 22 21 20 19 22 21 20 18 17 14 12 10 7 6 5 4 4 5 7 8 11 12 13 15 16 17 18
4 12 6 19 12 17 22 20 20 19 19 13 16 18 18 22 23 22 21 24 25 25 23 21 20 18 16 13 11 9 7 6 4 4 6 7 9 11 12 13 15 16 18 19
6 12 11 15 15 17 16 16 19 22 20 16 16 15 16 22 23 21 27 28 27 26 24 23 22 20 18 15 12 10 8 7 5 5 6 8 9 11 12 13 16 17 19 19
8 9 8 9 10 10 15 4 13 15 21 20 18 15 12 23 22 29 29 29 29 27 26 24 23 22 19 16 13 10 8 7 6 5 6 8 9 11 12 15 16 18 19 19
11 10 12 13 11 12 3 3 4 3 10 16 17 16 12 21 23 24 28 30 30 28 26 25 24 22 20 17 13 11 10 8 6 5 6 7 9 11 12 14 16 18 19 20
12 11 4 14 8 8 3 6 3 3 2 8 14 16 14 15 22 24 30 30 31 29 27 25 25 23 20 17 15 13 10 8 5 5 6 7 9 11 12 12 13 15 17 19
14 16 18 11 12 11 8 5 5 4 3 3 9 15 16 13 17 19 29 30 32 29 27 26 25 23 20 17 15 13 10 8 5 5 6 8 8 9 10 11 13 15 18 19
11 11 16 13 12 10 10 9 8 6 5 4 6 11 16 15 16 23 28 31 32 30 28 26 25 23 20 18 16 13 10 7 6 5 7 8 9 10 11 12 13 16 17 19
12 13 10 10 15 14 13 13 11 9 8 8 9 10 14 16 20 24 28 31 31 30 27 26 25 23 21 19 17 14 11 8 7 6 6 8 10 12 13 16 15 17 18 19
11 16 14 14 4 11 14 13 10 8 9 10 11 11 15 14 22 26 30 31 30 30 28 26 25 23 22 20 17 14 11 9 7 7 7 9 10 12 16 15 16 17 18 20
12 11 14 12 11 8 10 8 4 7 8 8 10 12 13 17 21 25 28 30 29 28 27 26 25 24 22 20 17 14 11 10 7 7 8 9 10 12 14 16 18 18 18 19
12 11 11 11 10 13 14 11 9 8 7 7 9 11 12 16 18 23 25 27 27 27 26 26 25 23 22 20 18 15 12 9 8 7 7 9 10 12 13 15 17 18 19 18
12 13 13 15 13 13 12 11 12 9 8 7 10 13 16 18 19 23 25 27 27 26 28 26 25 23 23 21 18 15 12 11 9 6 7 8 10 11 13 15 16 17 18 19
15 16 14 15 14 15 17 13 12 11 10 9 13 14 15 18 19 22 25 26 27 26 27 26 24 23 23 20 18 13 11 9 10 7 8 8 9 11 13 14 15 16 17 19
16 18 15 14 13 13 15 15 11 13 11 12 14 15 15 17 17 21 23 25 24 23 24 25 25 26 26 20 18 13 11 10 8 8 7 8 9 10 12 13 14 16 18 19
21 18 17 18 16 14 12 13 18 18 15 12 11 15 20 22 21 24 28 27 27 27 27 28 30 29 23 23 19 14 12 10 9 8 8 8 9 9 11 13 14 15 17 19
26 30 27 26 25 18 13 17 16 11 13 12 15 15 15 21 23 29 33 31 36 33 35 34 34 26 23 25 22 14 12 11 9 8 8 8 8 9 11 13 14 16 17 20
16 23 24 23 18 21 21 19 18 15 18 18 20 21 26 25 25 31 22 18 23 24 33 34 32 26 23 24 24 14 12 11 9 8 8 8 9 10 11 14 16 17 18 19
14 17 17 17 12 16 20 21 20 23 21 19 25 20 20 19 21 24 27 24 24 30 34 36 29 27 25 24 20 15 13 11 9 8 7 7 8 11 13 14 15 16 17 19
18 21 23 22 12 20 19 18 19 21 19 23 23 21 22 22 23 22 13 24 30 34 32 31 29 32 27 24 19 16 14 12 10 8 8 8 8 10 12 14 14 15 17 18
22 22 23 25 24 18 14 17 17 19 26 21 16 25 18 18 17 20 16 27 29 36 28 31 35 35 30 22 20 18 14 12 10 9 7 8 10 11 12 14 14 14 16 18
22 22 24 21 17 12 20 19 19 20 17 16 15 16 18 16 14 20 19 29 34 36 30 34 36 36 29 25 21 17 14 11 10 9 8 10 10 12 13 13 14 15 17 19
18 12 17 18 16 18 17 19 15 19 19 17 15 17 18 17 14 22 22 25 32 27 30 36 37 36 28 22 18 16 12 10 10 10 10 9 10 11 12 12 14 15 17 18
17 11 15 12 15 13 13 14 14 15 18 20 18 19 20 19 21 20 23 29 27 26 33 35 36 30 24 19 16 13 11 9 10 9 11 12 11 12 13 15 17 17 18 17
Wind_Direction
229 263 194 201 206 203 210 215 219 228 233 177 188 183 181 178 177 177 181 176 176 177 173 174 175 176 182 179 184 204 269 319 336 336 341 341 342 343 342 340 341 342 341 340
226 231 236 214 206 211 212 216 230 236 238 162 181 182 180 182 181 183 183 180 179 179 177 178 180 182 183 186 193 204 233 271 310 332 333 340 339 340 340 341 342 340 338 336
209 219 216 226 218 207 214 219 222 223 216 159 175 189 186 186 186 187 184 183 182 183 181 182 183 185 185 189 193 206 222 236 261 304 323 332 335 337 339 339 337 336 334 333
208 211 225 231 219 221 220 222 223 230 225 204 198 196 191 190 188 190 185 185 183 184 182 184 184 186 186 189 195 208 218 228 253 290 309 319 324 333 335 336 334 332 330 329
182 216 253 214 215 220 211 224 218 221 217 232 185 190 197 193 193 192 188 186 185 185 183 182 184 184 187 191 198 206 217 221 242 273 291 307 316 329 328 327 327 326 326 326
190 221 220 233 210 214 221 237 226 219 209 203 183 200 201 191 192 188 189 185 182 183 181 182 184 183 188 194 200 209 209 213 231 263 286 306 313 317 319 320 319 321 322 323
190 224 240 261 131 168 190 254 198 210 207 202 203 208 207 178 191 189 187 184 181 181 181 184 183 185 192 197 204 207 202 212 233 266 289 301 307 312 316 316 315 316 317 319
211 205 232 130 149 201 164 123 131 230 204 204 206 207 223 175 187 187 185 182 181 180 182 181 185 188 193 198 199 195 200 212 232 265 291 302 307 311 314 313 313 314 317 318
196 211 248 173 196 171 201 158 139 128 158 226 208 198 203 188 185 187 186 181 182 181 180 181 185 191 196 196 190 193 200 212 233 266 291 301 309 312 315 315 315 314 314 314
201 207 213 199 220 193 211 189 157 130 87 192 207 199 192 192 191 188 183 182 182 181 181 181 186 192 197 190 189 192 202 212 234 268 284 303 304 307 308 307 309 310 312 310
225 229 209 197 218 203 205 219 234 239 224 209 194 205 199 197 196 189 184 184 185 184 183 184 185 190 190 187 187 194 202 214 235 262 282 293 295 293 292 291 295 302 304 305
229 212 197 214 216 222 215 218 220 220 218 220 211 204 205 201 193 191 188 184 186 186 184 184 185 187 187 185 188 192 200 214 228 241 273 284 291 296 294 295 300 305 307 302
248 267 218 229 205 229 209 215 214 224 236 217 215 218 205 206 196 194 189 185 186 185 185 184 184 185 187 187 189 194 202 210 221 233 263 279 289 298 306 309 311 313 314 314
240 251 269 223 225 215 201 209 202 238 229 226 220 210 206 206 193 196 188 185 187 184 183 184 184 186 186 187 189 194 201 215 219 244 261 276 286 299 302 308 313 316 317 313
239 229 254 257 242 235 211 214 201 208 209 215 220 212 205 206 196 198 190 186 187 184 183 183 184 185 184 185 188 192 200 212 212 236 261 271 284 291 297 301 304 309 313 317
242 249 247 242 249 262 214 211 214 217 209 213 208 209 209 205 200 196 194 189 185 183 185 183 185 183 181 185 187 192 201 209 204 233 259 269 281 290 298 301 305 309 315 319
249 246 241 248 243 244 259 229 215 242 246 206 214 212 207 201 197 196 197 191 189 186 184 181 182 181 180 184 185 189 194 203 214 226 247 264 280 289 294 299 302 309 310 313
237 242 248 251 250 235 239 254 236 245 241 228 215 201 198 194 195 193 188 182 182 181 180 179 176 176 175 181 183 184 190 198 211 226 245 261 273 284 291 296 302 306 310 312
249 250 255 260 249 255 239 241 242 242 240 223 207 190 194 196 192 183 175 176 174 172 174 175 177 179 177 179 177 180 188 197 210 231 245 259 273 281 291 296 298 303 306 312
242 246 248 256 255 244 244 247 255 240 212 211 199 182 186 196 191 178 176 176 184 185 177 179 181 174 174 183 176 180 187 196 212 230 239 251 269 284 291 293 296 300 303 316
273 246 246 245 246 247 244 248 244 220 211 201 185 187 191 194 191 181 171 181 189 186 180 183 174 170 175 182 182 181 186 195 208 224 233 248 268 283 288 292 295 297 306 311
303 298 291 248 240 244 245 239 236 235 220 203 201 198 183 179 185 188 195 192 179 186 184 181 175 176 176 178 176 182 187 196 208 219 235 248 268 278 286 292 294 298 306 312
289 286 275 274 222 233 237 233 224 223 217 204 192 195 191 191 185 180 191 195 181 184 180 174 177 178 180 168 172 179 185 193 203 216 230 246 263 277 284 289 293 297 302 311
284 270 261 252 259 214 224 220 205 211 215 214 219 216 191 183 186 198 193 181 182 177 174 176 179 180 174 167 173 184 187 199 206 217 233 253 263 273 277 285 292 298 300 306
272 261 249 227 237 241 240 234 212 203 187 195 193 192 187 186 181 180 177 175 178 170 174 179 178 174 174 178 185 188 192 199 210 222 233 250 260 272 279 286 289 294 297 301
265 246 230 213 216 224 225 221 205 198 182 168 171 174 172 171 168 161 159 171 167 171 171 174 174 174 178 178 183 187 192 196 209 225 238 243 259 268 279 287 291 293 294 299
262 250 216 199 199 205 195 193 189 183 179 162 157 165 163 161 162 163 161 160 163 162 168 169 173 175 175 177 178 185 192 200 215 222 234 248 261 274 286 292 295 292 292 297
Height
744 740 742 753 761 765 767 771 776 765 763 765 770 773 780 787 796 803 811 818 824 831 837 843 848 853 856 859 861 863 864 864 864 864 863 862 860 858 856 854 851 848 845 843
768 753 748 749 750 753 759 760 761 754 755 746 761 767 776 783 792 798 806 813 820 827 834 840 845 850 854 857 860 861 862 863 863 862 862 861 859 858 855 853 850 847 845 842
766 756 755 762 746 743 748 750 750 758 751 749 758 764 770 777 785 792 800 808 815 823 830 837 842 847 852 855 858 859 860 861 862 861 861 860 859 857 855 852 849 847 844 841
771 757 771 748 733 736 740 741 741 740 740 740 750 757 763 771 779 787 794 803 811 820 827 834 839 845 849 853 855 858 858 859 860 860 860 859 858 856 854 851 849 846 843 841
774 761 747 735 737 737 738 739 731 735 737 737 742 751 760 765 772 781 789 799 807 815 823 830 836 842 846 850 852 854 856 857 858 858 858 857 856 854 853 850 848 845 842 839
774 763 762 738 721 727 726 743 722 726 731 737 743 755 750 757 767 776 785 794 802 811 819 827 833 838 843 845 848 850 852 854 855 856 856 855 854 853 851 849 846 843 840 837
764 758 742 721 722 727 749 740 711 714 722 729 738 738 740 750 762 772 781 790 798 807 814 822 829 834 838 842 844 847 850 852 853 853 853 853 852 851 849 847 844 841 838 835
754 759 756 720 735 739 729 728 727 726 720 726 731 737 740 746 757 766 775 785 794 803 811 818 825 830 834 838 842 845 848 849 850 851 851 850 850 848 847 845 842 839 836 833
738 735 723 723 723 727 728 730 730 730 733 731 732 736 741 742 752 762 770 781 791 799 807 814 821 827 830 834 839 843 845 847 848 849 849 848 847 846 845 844 843 840 836 832
723 722 721 723 723 726 729 729 731 733 735 737 735 735 741 746 751 758 767 778 788 796 804 810 817 823 827 831 836 840 842 843 845 845 846 846 846 845 844 843 841 838 835 831
716 714 715 718 723 726 728 730 732 733 735 737 738 740 741 746 750 755 764 775 784 791 799 806 813 819 824 828 833 836 838 840 842 843 844 844 843 843 842 841 840 838 835 831
719 713 719 718 722 723 726 729 729 731 734 737 738 739 742 745 749 755 761 771 780 786 794 802 809 815 820 825 829 832 835 837 839 841 842 842 841 840 839 836 835 833 830 827
716 712 710 715 719 719 723 724 725 729 731 732 736 738 741 743 747 753 758 767 775 782 789 797 804 810 816 821 825 829 832 834 837 838 840 840 839 837 835 832 830 827 824 822
715 716 715 711 714 719 720 723 728 729 730 732 733 737 739 742 747 752 755 764 772 778 786 793 800 806 812 818 822 826 829 831 834 836 836 837 836 835 833 830 826 823 822 819
714 715 717 716 717 717 719 723 726 728 729 732 735 737 739 743 746 752 757 764 770 776 783 790 797 803 809 815 819 822 826 828 830 832 834 834 834 833 831 829 826 822 818 816
716 715 716 718 718 715 713 719 723 724 727 732 735 737 739 743 746 752 757 762 767 772 780 787 793 799 805 811 815 819 822 824 827 829 830 831 830 829 828 826 823 819 816 814
715 715 714 714 714 716 714 713 719 722 724 727 732 735 738 742 745 750 754 760 766 772 778 784 790 796 802 807 812 816 819 822 824 826 827 827 827 826 825 823 820 817 815 812
709 710 710 712 712 713 715 713 715 718 721 724 729 733 736 739 741 746 751 758 765 771 776 781 787 792 798 804 808 812 816 819 821 822 823 823 823 823 822 819 817 814 812 809
707 706 709 708 709 710 711 711 713 715 718 722 725 729 732 735 738 743 749 755 761 766 772 777 783 788 794 800 805 809 812 815 817 819 820 820 820 819 818 816 814 812 809 806
703 704 705 705 705 705 707 709 710 712 715 720 723 726 730 734 736 740 745 749 752 757 765 771 778 785 790 795 800 805 808 810 813 815 816 816 816 815 815 813 811 809 806 803
695 696 697 697 697 700 703 706 709 710 712 715 718 721 723 728 734 738 745 750 754 758 762 767 774 781 786 790 796 801 803 806 808 810 811 812 812 812 811 810 808 805 802 799
699 697 694 692 693 693 697 701 705 706 707 710 713 716 721 726 731 737 739 741 747 752 756 763 770 776 780 785 792 796 799 802 804 806 807 808 808 808 807 806 804 801 798 795
694 691 688 687 684 686 691 694 697 700 704 706 707 712 716 718 723 729 735 739 741 747 752 760 765 770 776 782 787 791 795 798 800 801 802 803 804 804 804 803 800 797 794 792
686 682 678 678 677 678 681 686 690 694 697 701 704 707 712 715 720 724 728 731 735 742 749 754 759 766 772 778 783 787 790 793 796 797 799 800 800 800 800 798 796 793 791 789
677 672 667 666 668 668 672 678 683 687 689 694 698 702 707 711 715 719 723 726 730 739 744 750 756 763 769 773 778 782 786 789 792 793 795 796 796 796 795 793 792 789 787 785
665 658 655 655 660 663 666 669 672 678 681 686 693 698 702 707 712 716 721 726 733 738 741 748 755 761 766 771 775 779 783 786 788 789 791 792 792 792 790 788 787 785 783 781
654 653 649 650 654 656 659 664 668 673 676 680 687 695 700 704 709 714 719 725 731 735 740 746 753 758 764 768 773 777 780 782 784 786 788 788 787 786 785 784 783 781 779 776